• In Czech Republic
  • List of Countries
  • For 7 days
  • Water Temperature
  • Satellite Maps
  • Weather Map
  • Weather Widgets
  • user-avatar
    Login

    Hourly Weather San Bernabe Amaxac de Guerrero

    Today, 22 November, Wednesday

    Time Temperature Precipitation Wind Pressure Humidity
    00:00 +12°C° 0 mm 1 mps 573 mmHg 73%
    01:00 +11°C° 0 mm 1 mps 573 mmHg 73%
    02:00 +11°C° 0 mm 1 mps 573 mmHg 74%
    03:00 +10°C° 0 mm 2 mps 573 mmHg 77%
    04:00 +9°C° 0 mm 2 mps 573 mmHg 80%
    05:00 +9°C° 0 mm 2 mps 573 mmHg 83%
    06:00 +10°C° 0 mm 3 mps 574 mmHg 72%
    07:00 +11°C° 0 mm 3 mps 575 mmHg 60%
    08:00 +12°C° 0 mm 4 mps 576 mmHg 49%
    09:00 +13°C° 0 mm 4 mps 576 mmHg 48%
    10:00 +14°C° 0 mm 4 mps 577 mmHg 47%
    11:00 +15°C° 0 mm 4 mps 577 mmHg 46%
    12:00 +15°C° 0 mm 4 mps 577 mmHg 48%
    13:00 +14°C° 0 mm 4 mps 576 mmHg 49%
    14:00 +14°C° 0 mm 4 mps 575 mmHg 51%
    15:00 +13°C° 0.1 mm 4 mps 575 mmHg 55%
    16:00 +11°C° 0.1 mm 3 mps 575 mmHg 59%
    17:00 +10°C° 0.1 mm 3 mps 574 mmHg 63%
    18:00 +9°C° 0 mm 3 mps 574 mmHg 67%
    19:00 +8°C° 0 mm 3 mps 574 mmHg 71%
    20:00 +7°C° 0 mm 3 mps 574 mmHg 75%
    21:00 +5°C° 0 mm 3 mps 574 mmHg 75%
    22:00 +6°C° 0 mm 2 mps 574 mmHg 75%
    23:00 +5°C° 0 mm 2 mps 574 mmHg 75%

    Tomorrow, 23 November, Thursday

    Time Temperature Precipitation Wind Pressure Humidity
    00:00 +5°C° 0 mm 2 mps 573 mmHg 75%
    01:00 +5°C° 0 mm 2 mps 573 mmHg 74%
    02:00 +5°C° 0 mm 2 mps 573 mmHg 74%
    03:00 +4°C° 0 mm 2 mps 572 mmHg 74%
    04:00 +4°C° 0 mm 2 mps 572 mmHg 75%
    05:00 +4°C° 0 mm 2 mps 572 mmHg 75%
    06:00 +6°C° 0 mm 2 mps 573 mmHg 68%
    07:00 +7°C° 0 mm 2 mps 575 mmHg 61%
    08:00 +9°C° 0 mm 2 mps 576 mmHg 53%
    09:00 +12°C° 0 mm 2 mps 576 mmHg 47%
    10:00 +14°C° 0 mm 2 mps 577 mmHg 41%
    11:00 +16°C° 0 mm 2 mps 577 mmHg 34%
    12:00 +16°C° 0 mm 2 mps 577 mmHg 34%
    13:00 +17°C° 0 mm 2 mps 577 mmHg 33%
    14:00 +17°C° 0 mm 2 mps 576 mmHg 33%
    15:00 +15°C° 0 mm 2 mps 575 mmHg 40%
    16:00 +14°C° 0 mm 2 mps 575 mmHg 48%
    17:00 +12°C° 0 mm 2 mps 574 mmHg 55%
    18:00 +10°C° 0 mm 2 mps 574 mmHg 61%
    19:00 +10°C° 0 mm 1 mps 574 mmHg 67%
    20:00 +9°C° 0 mm 1 mps 574 mmHg 73%
    21:00 +9°C° 0 mm 1 mps 574 mmHg 75%
    22:00 +8°C° 0 mm 1 mps 574 mmHg 78%
    23:00 +8°C° 0 mm 1 mps 573 mmHg 80%

    Day after tomorrow, 24 November, Friday

    Time Temperature Precipitation Wind Pressure Humidity
    00:00 +8°C° 0 mm 1 mps 573 mmHg 80%
    01:00 +7°C° 0 mm 1 mps 573 mmHg 81%
    02:00 +7°C° 0 mm 1 mps 572 mmHg 81%
    03:00 +7°C° 0 mm 1 mps 572 mmHg 81%
    04:00 +7°C° 0 mm 1 mps 572 mmHg 80%
    05:00 +6°C° 0 mm 1 mps 572 mmHg 80%
    06:00 +8°C° 0 mm 1 mps 573 mmHg 72%
    07:00 +10°C° 0 mm 1 mps 574 mmHg 63%
    08:00 +12°C° 0 mm 1 mps 576 mmHg 55%
    09:00 +14°C° 0 mm 1 mps 576 mmHg 48%
    10:00 +15°C° 0 mm 2 mps 577 mmHg 41%
    11:00 +17°C° 0 mm 2 mps 577 mmHg 34%
    12:00 +18°C° 0 mm 2 mps 577 mmHg 33%
    13:00 +18°C° 0 mm 3 mps 576 mmHg 33%
    14:00 +18°C° 0 mm 3 mps 576 mmHg 33%
    15:00 +17°C° 0 mm 2 mps 575 mmHg 41%
    16:00 +15°C° 0 mm 2 mps 574 mmHg 49%
    17:00 +13°C° 0 mm 1 mps 574 mmHg 57%
    18:00 +12°C° 0 mm 1 mps 574 mmHg 62%
    19:00 +12°C° 0 mm 1 mps 574 mmHg 67%
    20:00 +10°C° 0 mm 0 mps 574 mmHg 72%
    21:00 +10°C° 0 mm 1 mps 574 mmHg 73%
    22:00 +10°C° 0 mm 1 mps 574 mmHg 73%
    23:00 +10°C° 0 mm 1 mps 574 mmHg 73%

    25 November, Saturday

    Time Temperature Precipitation Wind Pressure Humidity
    00:00 +10°C° 0 mm 1 mps 573 mmHg 73%
    01:00 +9°C° 0 mm 1 mps 573 mmHg 73%
    02:00 +9°C° 0 mm 1 mps 573 mmHg 72%
    03:00 +9°C° 0 mm 1 mps 573 mmHg 70%
    04:00 +8°C° 0 mm 1 mps 573 mmHg 68%
    05:00 +8°C° 0 mm 1 mps 573 mmHg 66%
    06:00 +10°C° 0 mm 1 mps 574 mmHg 57%
    07:00 +12°C° 0 mm 1 mps 575 mmHg 48%
    08:00 +14°C° 0 mm 1 mps 577 mmHg 40%
    09:00 +16°C° 0 mm 1 mps 577 mmHg 34%
    10:00 +18°C° 0 mm 2 mps 578 mmHg 29%
    11:00 +20°C° 0 mm 2 mps 578 mmHg 24%
    12:00 +20°C° 0 mm 2 mps 578 mmHg 24%
    13:00 +20°C° 0 mm 2 mps 578 mmHg 25%
    14:00 +21°C° 0 mm 3 mps 577 mmHg 25%
    15:00 +19°C° 0 mm 2 mps 576 mmHg 35%
    16:00 +16°C° 0 mm 2 mps 576 mmHg 44%
    17:00 +14°C° 0 mm 2 mps 575 mmHg 54%
    18:00 +13°C° 0 mm 2 mps 575 mmHg 59%
    19:00 +12°C° 0 mm 2 mps 575 mmHg 64%
    20:00 +11°C° 0 mm 1 mps 575 mmHg 69%
    21:00 +11°C° 0 mm 1 mps 575 mmHg 67%
    22:00 +10°C° 0 mm 1 mps 575 mmHg 64%
    23:00 +10°C° 0 mm 1 mps 575 mmHg 62%

    26 November, Sunday

    Time Temperature Precipitation Wind Pressure Humidity
    00:00 +8°C° 0 mm 2 mps 574 mmHg 58%
    01:00 +8°C° 0 mm 2 mps 574 mmHg 54%
    02:00 +8°C° 0 mm 2 mps 574 mmHg 50%
    03:00 +7°C° 0 mm 2 mps 574 mmHg 47%
    04:00 +7°C° 0 mm 2 mps 574 mmHg 44%
    05:00 +7°C° 0 mm 2 mps 574 mmHg 42%
    06:00 +9°C° 0 mm 2 mps 575 mmHg 37%
    07:00 +12°C° 0 mm 2 mps 577 mmHg 33%
    08:00 +14°C° 0 mm 2 mps 578 mmHg 29%
    09:00 +14°C° 0 mm 3 mps 579 mmHg 26%
    10:00 +17°C° 0 mm 3 mps 579 mmHg 24%
    11:00 +19°C° 0 mm 3 mps 579 mmHg 21%
    12:00 +19°C° 0 mm 3 mps 579 mmHg 22%
    13:00 +20°C° 0 mm 3 mps 579 mmHg 23%
    14:00 +20°C° 0 mm 3 mps 578 mmHg 24%
    15:00 +18°C° 0 mm 3 mps 577 mmHg 32%
    16:00 +15°C° 0 mm 2 mps 577 mmHg 40%
    17:00 +13°C° 0 mm 2 mps 576 mmHg 49%
    18:00 +12°C° 0 mm 2 mps 576 mmHg 54%
    19:00 +10°C° 0 mm 2 mps 576 mmHg 59%
    20:00 +9°C° 0 mm 2 mps 576 mmHg 64%
    21:00 +8°C° 0 mm 2 mps 575 mmHg 63%
    22:00 +8°C° 0 mm 2 mps 575 mmHg 61%
    23:00 +7°C° 0 mm 2 mps 575 mmHg 60%

    27 November, Monday

    Time Temperature Precipitation Wind Pressure Humidity
    00:00 +7°C° 0 mm 2 mps 575 mmHg 57%
    01:00 +7°C° 0 mm 2 mps 574 mmHg 54%
    02:00 +6°C° 0 mm 2 mps 574 mmHg 51%
    03:00 +6°C° 0 mm 2 mps 574 mmHg 49%
    04:00 +6°C° 0 mm 2 mps 574 mmHg 46%
    05:00 +6°C° 0 mm 2 mps 574 mmHg 44%
    06:00 +8°C° 0 mm 2 mps 575 mmHg 39%
    07:00 +10°C° 0 mm 2 mps 576 mmHg 35%
    08:00 +13°C° 0 mm 2 mps 577 mmHg 30%
    09:00 +15°C° 0 mm 2 mps 578 mmHg 26%
    10:00 +17°C° 0 mm 2 mps 578 mmHg 23%
    11:00 +19°C° 0 mm 3 mps 579 mmHg 20%
    12:00 +20°C° 0 mm 3 mps 578 mmHg 21%
    13:00 +20°C° 0 mm 3 mps 578 mmHg 22%
    14:00 +21°C° 0 mm 3 mps 578 mmHg 23%
    15:00 +18°C° 0 mm 2 mps 577 mmHg 31%
    16:00 +16°C° 0 mm 2 mps 576 mmHg 39%
    17:00 +14°C° 0 mm 2 mps 575 mmHg 48%
    18:00 +13°C° 0 mm 2 mps 575 mmHg 53%
    19:00 +12°C° 0 mm 2 mps 575 mmHg 59%
    20:00 +11°C° 0 mm 1 mps 575 mmHg 65%
    21:00 +10°C° 0 mm 1 mps 575 mmHg 66%
    22:00 +10°C° 0 mm 1 mps 574 mmHg 68%
    23:00 +10°C° 0 mm 1 mps 574 mmHg 69%
    Show more